Location: Ash Observatory
(39.7321°N, 75.2004°W)
Time: 17:18:55
(UTC-04:00)

ISS - Visible Passes

Search period start: 03 August 2020 00:00
Search period end: 13 August 2020 00:00
Orbit: 418 x 420 km, 51.6° (Epoch: 04 August)

Date Brightness Start Highest point End Pass type
(mag) Time Alt. Az. Time Alt. Az. Time Alt. Az.
03 Aug -3.7 20:38:55 10° NW 20:42:17 73° NE 20:45:39 10° ESE visible
03 Aug -1.1 22:17:23 10° WSW 22:18:39 12° SW 22:18:48 12° SW visible
04 Aug -1.7 21:28:43 10° W 21:31:17 20° SW 21:33:14 13° S visible
05 Aug -2.5 20:40:44 10° WNW 20:43:51 35° SW 20:46:56 10° SSE visible
07 Aug -0.9 20:43:51 10° WSW 20:45:08 12° SW 20:46:25 10° SSW visible
